| time (UTC) | temp C | wind direction | speed KPH | gust KPH | rain 1hr cm | rain 24hr cm | rain mn cm | humidity % | barometer mb |
| 20260506003557 | 14 | 146 | 0.0 | 1.6 | 0.00 | 0.13 | 0.13 | 99 | 1005.3 |
| 20260506002056 | 15 | 124 | 3.2 | 4.8 | 0.00 | 0.13 | 0.13 | 99 | 1004.5 |
| 20260506000553 | 15 | 184 | 1.6 | 4.8 | 0.00 | 0.13 | 0.13 | 96 | 1004.4 |
| 20260505235051 | 15 | 130 | 4.8 | 4.8 | 0.00 | 0.13 | 0.13 | 99 | 1004.7 |
| 20260505233548 | 15 | 163 | 0.0 | 8.0 | 0.00 | 0.13 | 0.13 | 92 | 1004.4 |
| 20260505232046 | 15 | 131 | 3.2 | 3.2 | 0.00 | 0.13 | 0.13 | 99 | 1004.6 |
| 20260505230544 | 15 | 178 | 1.6 | 3.2 | 0.00 | 0.13 | 0.13 | 97 | 1004.6 |
| 20260505225039 | 16 | 233 | 8.0 | 12.9 | 0.13 | 0.13 | 0.13 | 87 | 1004.9 |
| 20260505223536 | 16 | 254 | 8.0 | 12.9 | 0.18 | 0.10 | 0.10 | 86 | 1004.5 |
| 20260505222036 | 16 | 303 | 3.2 | 4.8 | 0.13 | 0.08 | 0.08 | 89 | 1004.1 |
| 20260505220533 | 18 | 284 | 17.7 | 33.8 | 0.00 | 0.00 | 0.00 | 78 | 1004.1 |
| 20260505215032 | 23 | 211 | 4.8 | 8.0 | 0.00 | 0.00 | 0.00 | 50 | 1001.1 |
| 20260505213530 | 24 | 230 | 4.8 | 9.7 | 0.00 | 0.00 | 0.00 | 48 | 1000.6 |
| 20260505212026 | 25 | 143 | 4.8 | 11.3 | 0.00 | 0.00 | 0.00 | 46 | 1000.6 |
| 20260505210522 | 26 | 125 | 4.8 | 8.0 | 0.00 | 0.00 | 0.00 | 45 | 1000.7 |
| 20260505205020 | 25 | 193 | 8.0 | 12.9 | 0.00 | 0.00 | 0.00 | 44 | 1000.4 |
| 20260505203517 | 25 | 161 | 1.6 | 11.3 | 0.00 | 0.00 | 0.00 | 46 | 1000.6 |
| 20260505202012 | 26 | 109 | 4.8 | 14.5 | 0.00 | 0.00 | 0.00 | 43 | 1000.5 |
| 20260505200510 | 26 | 188 | 9.7 | 17.7 | 0.00 | 0.00 | 0.00 | 37 | 1000.4 |
| 20260505195007 | 26 | 195 | 12.9 | 40.2 | 0.00 | 0.00 | 0.00 | 37 | 1000.7 |
| 20260505193501 | 26 | 235 | 27.4 | 37.0 | 0.00 | 0.00 | 0.00 | 39 | 1000.7 |
| 20260505192000 | 26 | 129 | 9.7 | 17.7 | 0.00 | 0.00 | 0.00 | 36 | 1000.9 |
| 20260505190456 | 26 | 232 | 19.3 | 32.2 | 0.00 | 0.00 | 0.00 | 42 | 1000.8 |
| 20260505184951 | 25 | 36 | 9.7 | 24.1 | 0.00 | 0.00 | 0.00 | 42 | 1001.1 |
| 20260505183448 | 25 | 208 | 6.4 | 25.7 | 0.00 | 0.00 | 0.00 | 43 | 1001.5 |
| 20260505181943 | 25 | 232 | 19.3 | 37.0 | 0.00 | 0.00 | 0.00 | 45 | 1001.4 |
| 20260505180440 | 24 | 281 | 22.5 | 33.8 | 0.00 | 0.00 | 0.00 | 45 | 1001.8 |
| 20260505174936 | 24 | 268 | 14.5 | 25.7 | 0.00 | 0.00 | 0.00 | 45 | 1002.1 |
| 20260505173432 | 24 | 193 | 11.3 | 17.7 | 0.00 | 0.00 | 0.00 | 46 | 1002.4 |
| 20260505171932 | 24 | 156 | 12.9 | 17.7 | 0.00 | 0.00 | 0.00 | 45 | 1002.7 |
| 20260505170428 | 23 | 346 | 22.5 | 37.0 | 0.00 | 0.00 | 0.00 | 47 | 1002.9 |
| 20260505164927 | 22 | 199 | 12.9 | 22.5 | 0.00 | 0.00 | 0.00 | 48 | 1003.3 |
| 20260505163427 | 22 | 220 | 11.3 | 27.4 | 0.00 | 0.00 | 0.00 | 49 | 1003.4 |
| 20260505161924 | 22 | 247 | 20.9 | 33.8 | 0.00 | 0.00 | 0.00 | 49 | 1003.8 |
| 20260505160422 | 22 | 211 | 6.4 | 20.9 | 0.00 | 0.00 | 0.00 | 48 | 1004.1 |
| 20260505151913 | 20 | 238 | 4.8 | 9.7 | 0.00 | 0.00 | 0.00 | 51 | 1004.7 |
| 20260505150410 | 20 | 176 | 0.0 | 16.1 | 0.00 | 0.00 | 0.00 | 53 | 1005.0 |
| 20260505140357 | 18 | 229 | 8.0 | 12.9 | 0.00 | 0.00 | 0.00 | 54 | 1004.7 |
| 20260505124840 | 15 | 176 | 6.4 | 22.5 | 0.00 | 0.00 | 0.00 | 63 | 1005.3 |
| 20260505123336 | 15 | 180 | 6.4 | 11.3 | 0.00 | 0.00 | 0.00 | 64 | 1005.4 |
| 20260505121832 | 14 | 177 | 1.6 | 3.2 | 0.00 | 0.00 | 0.00 | 64 | 1005.4 |
| 20260505120327 | 13 | 183 | 3.2 | 3.2 | 0.00 | 0.00 | 0.00 | 66 | 1006.0 |
| 20260505114826 | 13 | 204 | 4.8 | 9.7 | 0.00 | 0.00 | 0.00 | 68 | 1006.0 |
| 20260505113321 | 13 | 222 | 11.3 | 20.9 | 0.00 | 0.00 | 0.00 | 69 | 1005.8 |
| 20260505111821 | 13 | 236 | 4.8 | 11.3 | 0.00 | 0.00 | 0.00 | 70 | 1005.7 |
| 20260505110317 | 12 | 255 | 6.4 | 9.7 | 0.00 | 0.00 | 0.00 | 74 | 1005.9 |
| 20260505101815 | 12 | 231 | 6.4 | 11.3 | 0.00 | 0.00 | 0.00 | 72 | 1005.9 |
| 20260505100309 | 10 | 71 | 1.6 | 1.6 | 0.00 | 0.00 | 0.00 | 79 | 1005.9 |
| 20260505094809 | 10 | 216 | 1.6 | 8.0 | 0.00 | 0.00 | 0.00 | 77 | 1005.3 |
| 20260505093306 | 10 | 61 | 1.6 | 3.2 | 0.00 | 0.00 | 0.00 | 82 | 1005.7 |
| 20260505091804 | 9 | 130 | 0.0 | 1.6 | 0.00 | 0.00 | 0.00 | 82 | 1005.8 |
| 20260505090303 | 9 | 59 | 3.2 | 3.2 | 0.00 | 0.00 | 0.00 | 85 | 1005.7 |
| 20260505084801 | 9 | 134 | 1.6 | 3.2 | 0.00 | 0.00 | 0.00 | 84 | 1006.0 |
| 20260505083259 | 10 | 279 | 6.4 | 9.7 | 0.00 | 0.00 | 0.00 | 81 | 1005.9 |
| 20260505081754 | 10 | 128 | 0.0 | 1.6 | 0.00 | 0.00 | 0.00 | 79 | 1006.1 |
| 20260505080250 | 9 | 135 | 1.6 | 1.6 | 0.00 | 0.00 | 0.00 | 83 | 1006.0 |
| 20260505074746 | 10 | 279 | 3.2 | 3.2 | 0.00 | 0.00 | 0.00 | 83 | 1006.1 |
| 20260505073245 | 11 | 104 | 1.6 | 3.2 | 0.00 | 0.00 | 0.00 | 73 | 1006.0 |
| 20260505071745 | 12 | 140 | 0.0 | 3.2 | 0.00 | 0.00 | 0.00 | 69 | 1006.2 |
| 20260505070241 | 11 | 204 | 0.0 | 3.2 | 0.00 | 0.00 | 0.00 | 72 | 1006.0 |
| 20260505064737 | 12 | 224 | 8.0 | 11.3 | 0.00 | 0.00 | 0.00 | 66 | 1006.1 |
| 20260505063234 | 12 | 181 | 0.0 | 3.2 | 0.00 | 0.00 | 0.00 | 67 | 1006.1 |
| 20260505061731 | 9 | 161 | 1.6 | 4.8 | 0.00 | 0.00 | 0.00 | 81 | 1006.0 |
| 20260505060229 | 6 | 155 | 1.6 | 3.2 | 0.00 | 0.00 | 0.00 | 97 | 1006.1 |
| 20260505054730 | 6 | 146 | 0.0 | 3.2 | 0.00 | 0.00 | 0.00 | 97 | 1006.4 |
| 20260505053227 | 6 | 148 | 0.0 | 1.6 | 0.00 | 0.00 | 0.00 | 97 | 1006.3 |
| 20260505051725 | 6 | 190 | 0.0 | 1.6 | 0.00 | 0.00 | 0.00 | 98 | 1006.3 |
| 20260505050224 | 6 | 190 | 0.0 | 1.6 | 0.00 | 0.00 | 0.00 | 96 | 1006.1 |
| 20260505041712 | 7 | 190 | 0.0 | 0.0 | 0.00 | 0.00 | 0.00 | 95 | 1005.7 |
| 20260505040209 | 7 | 190 | 0.0 | 0.0 | 0.00 | 0.00 | 0.00 | 91 | 1005.7 |
| 20260505034704 | 8 | 190 | 0.0 | 0.0 | 0.00 | 0.05 | 0.05 | 90 | 1005.4 |
| 20260505033201 | 8 | 190 | 0.0 | 1.6 | 0.00 | 0.05 | 0.05 | 90 | 1005.3 |
| 20260505031658 | 8 | 190 | 0.0 | 0.0 | 0.00 | 0.05 | 0.05 | 90 | 1005.3 |
| 20260505030159 | 8 | 190 | 0.0 | 0.0 | 0.00 | 0.05 | 0.05 | 89 | 1005.3 |
| 20260505024657 | 8 | 190 | 0.0 | 1.6 | 0.00 | 0.05 | 0.05 | 88 | 1005.6 |
| 20260505023154 | 9 | 190 | 0.0 | 0.0 | 0.00 | 0.05 | 0.05 | 88 | 1005.5 |
| 20260505021651 | 10 | 190 | 0.0 | 0.0 | 0.00 | 0.05 | 0.05 | 91 | 1005.6 |
| 20260505020151 | 10 | 191 | 0.0 | 0.0 | 0.00 | 0.05 | 0.05 | 93 | 1005.7 |
| 20260505014648 | 10 | 191 | 0.0 | 0.0 | 0.00 | 0.05 | 0.05 | 94 | 1005.4 |
| 20260505013145 | 10 | 179 | 0.0 | 0.0 | 0.00 | 0.05 | 0.05 | 93 | 1005.4 |
| 20260505011641 | 10 | 184 | 0.0 | 1.6 | 0.00 | 0.05 | 0.05 | 91 | 1005.2 |
| 20260505010136 | 10 | 159 | 0.0 | 0.0 | 0.00 | 0.05 | 0.05 | 88 | 1005.1 |